• In Germany
  • List of Countries
  • For 7 days
  • Water Temperature
  • Satellite Maps
  • Weather Map
  • Weather Widgets
  • user-avatar
    Login

    Hourly Weather Tirana

    Today, 26 June, Monday

    Time Temperature Precipitation Wind Pressure Humidity
    00:00 +23°C° 0 mm 2 mps 751 mmHg 79%
    01:00 +23°C° 0 mm 2 mps 751 mmHg 81%
    02:00 +21°C° 0 mm 2 mps 751 mmHg 81%
    03:00 +21°C° 0 mm 2 mps 751 mmHg 82%
    04:00 +21°C° 0 mm 2 mps 751 mmHg 82%
    05:00 +25°C° 0 mm 2 mps 751 mmHg 71%
    06:00 +27°C° 0 mm 2 mps 751 mmHg 61%
    07:00 +30°C° 0 mm 2 mps 751 mmHg 50%
    08:00 +32°C° 0 mm 2 mps 751 mmHg 46%
    09:00 +34°C° 0 mm 2 mps 751 mmHg 41%
    10:00 +35°C° 0 mm 2 mps 751 mmHg 37%
    11:00 +36°C° 0 mm 3 mps 751 mmHg 36%
    12:00 +36°C° 0 mm 3 mps 751 mmHg 35%
    13:00 +37°C° 0 mm 4 mps 751 mmHg 34%
    14:00 +36°C° 0 mm 3 mps 750 mmHg 36%
    15:00 +35°C° 0 mm 3 mps 750 mmHg 39%
    16:00 +35°C° 0 mm 3 mps 750 mmHg 41%
    17:00 +31°C° 0 mm 2 mps 750 mmHg 52%
    18:00 +29°C° 0 mm 2 mps 750 mmHg 62%
    19:00 +26°C° 0 mm 1 mps 750 mmHg 73%
    20:00 +25°C° 0 mm 1 mps 751 mmHg 78%
    21:00 +23°C° 0 mm 1 mps 751 mmHg 82%
    22:00 +22°C° 0 mm 1 mps 751 mmHg 87%
    23:00 +22°C° 0 mm 1 mps 751 mmHg 86%

    Tomorrow, 27 June, Tuesday

    Time Temperature Precipitation Wind Pressure Humidity
    00:00 +22°C° 0 mm 1 mps 752 mmHg 86%
    01:00 +22°C° 0 mm 1 mps 752 mmHg 85%
    02:00 +21°C° 0 mm 1 mps 751 mmHg 85%
    03:00 +21°C° 0 mm 1 mps 751 mmHg 84%
    04:00 +21°C° 0 mm 1 mps 751 mmHg 84%
    05:00 +24°C° 0 mm 1 mps 751 mmHg 74%
    06:00 +26°C° 0 mm 1 mps 752 mmHg 64%
    07:00 +29°C° 0 mm 1 mps 752 mmHg 54%
    08:00 +31°C° 0 mm 1 mps 752 mmHg 48%
    09:00 +33°C° 0 mm 1 mps 752 mmHg 42%
    10:00 +34°C° 0 mm 1 mps 752 mmHg 36%
    11:00 +36°C° 0 mm 2 mps 751 mmHg 33%
    12:00 +36°C° 0 mm 2 mps 751 mmHg 31%
    13:00 +37°C° 0 mm 3 mps 751 mmHg 28%
    14:00 +36°C° 0 mm 3 mps 750 mmHg 31%
    15:00 +36°C° 0 mm 3 mps 750 mmHg 33%
    16:00 +35°C° 0 mm 2 mps 750 mmHg 35%
    17:00 +31°C° 0 mm 2 mps 750 mmHg 47%
    18:00 +28°C° 0 mm 2 mps 750 mmHg 58%
    19:00 +25°C° 0 mm 1 mps 750 mmHg 69%
    20:00 +25°C° 0 mm 2 mps 750 mmHg 69%
    21:00 +24°C° 0 mm 2 mps 750 mmHg 69%
    22:00 +22°C° 0 mm 3 mps 751 mmHg 69%
    23:00 +22°C° 0 mm 3 mps 750 mmHg 68%

    Day after tomorrow, 28 June, Wednesday

    Time Temperature Precipitation Wind Pressure Humidity
    00:00 +21°C° 0 mm 3 mps 750 mmHg 67%
    01:00 +21°C° 0 mm 3 mps 750 mmHg 66%
    02:00 +21°C° 0 mm 3 mps 750 mmHg 64%
    03:00 +21°C° 0 mm 3 mps 750 mmHg 61%
    04:00 +21°C° 0 mm 4 mps 750 mmHg 59%
    05:00 +25°C° 0 mm 3 mps 750 mmHg 53%
    06:00 +28°C° 0 mm 3 mps 750 mmHg 47%
    07:00 +31°C° 0 mm 3 mps 750 mmHg 41%
    08:00 +33°C° 0 mm 4 mps 750 mmHg 37%
    09:00 +35°C° 0 mm 4 mps 750 mmHg 33%
    10:00 +36°C° 0 mm 5 mps 750 mmHg 29%
    11:00 +36°C° 0 mm 5 mps 750 mmHg 29%
    12:00 +37°C° 0 mm 5 mps 750 mmHg 29%
    13:00 +37°C° 0 mm 5 mps 750 mmHg 29%
    14:00 +37°C° 0 mm 5 mps 749 mmHg 31%
    15:00 +36°C° 0 mm 5 mps 749 mmHg 33%
    16:00 +35°C° 0 mm 5 mps 749 mmHg 35%
    17:00 +33°C° 0 mm 4 mps 749 mmHg 45%
    18:00 +29°C° 0 mm 4 mps 750 mmHg 56%
    19:00 +26°C° 0 mm 3 mps 750 mmHg 66%
    20:00 +26°C° 0 mm 3 mps 750 mmHg 65%
    21:00 +25°C° 0 mm 3 mps 750 mmHg 65%
    22:00 +25°C° 0 mm 3 mps 751 mmHg 64%
    23:00 +25°C° 0.1 mm 3 mps 750 mmHg 61%

    29 June, Thursday

    Time Temperature Precipitation Wind Pressure Humidity
    00:00 +25°C° 0.1 mm 4 mps 750 mmHg 58%
    01:00 +26°C° 0.1 mm 4 mps 750 mmHg 55%
    02:00 +26°C° 0 mm 4 mps 750 mmHg 53%
    03:00 +25°C° 0 mm 4 mps 750 mmHg 52%
    04:00 +25°C° 0 mm 4 mps 750 mmHg 51%
    05:00 +27°C° 0 mm 4 mps 750 mmHg 47%
    06:00 +30°C° 0 mm 4 mps 750 mmHg 44%
    07:00 +33°C° 0 mm 4 mps 750 mmHg 40%
    08:00 +35°C° 0 mm 5 mps 750 mmHg 35%
    09:00 +38°C° 0 mm 7 mps 750 mmHg 29%
    10:00 +40°C° 0 mm 8 mps 749 mmHg 23%
    11:00 +40°C° 0 mm 8 mps 749 mmHg 23%
    12:00 +42°C° 0 mm 9 mps 749 mmHg 22%
    13:00 +42°C° 0 mm 10 mps 749 mmHg 21%
    14:00 +40°C° 0 mm 9 mps 749 mmHg 24%
    15:00 +39°C° 0 mm 8 mps 749 mmHg 26%
    16:00 +38°C° 0 mm 8 mps 749 mmHg 29%
    17:00 +34°C° 0 mm 7 mps 750 mmHg 38%
    18:00 +32°C° 0 mm 7 mps 750 mmHg 48%
    19:00 +28°C° 0 mm 6 mps 750 mmHg 57%
    20:00 +27°C° 0 mm 6 mps 751 mmHg 57%
    21:00 +26°C° 0 mm 5 mps 751 mmHg 57%
    22:00 +25°C° 0 mm 5 mps 752 mmHg 57%
    23:00 +25°C° 0 mm 5 mps 752 mmHg 57%

    30 June, Friday

    Time Temperature Precipitation Wind Pressure Humidity
    00:00 +23°C° 0 mm 4 mps 752 mmHg 58%
    01:00 +24°C° 0 mm 3 mps 752 mmHg 58%
    02:00 +24°C° 0 mm 3 mps 752 mmHg 59%
    03:00 +23°C° 0 mm 2 mps 752 mmHg 61%
    04:00 +23°C° 0 mm 2 mps 752 mmHg 62%
    05:00 +25°C° 0 mm 2 mps 753 mmHg 56%
    06:00 +28°C° 0 mm 2 mps 753 mmHg 49%
    07:00 +31°C° 0 mm 1 mps 753 mmHg 43%
    08:00 +33°C° 0 mm 1 mps 753 mmHg 37%
    09:00 +35°C° 0 mm 1 mps 753 mmHg 31%
    10:00 +39°C° 0 mm 1 mps 753 mmHg 25%
    11:00 +39°C° 0 mm 2 mps 753 mmHg 24%
    12:00 +40°C° 0 mm 3 mps 753 mmHg 22%
    13:00 +41°C° 0 mm 4 mps 752 mmHg 21%
    14:00 +41°C° 0 mm 4 mps 752 mmHg 23%
    15:00 +39°C° 0 mm 3 mps 752 mmHg 26%
    16:00 +38°C° 0 mm 3 mps 752 mmHg 28%
    17:00 +35°C° 0 mm 2 mps 752 mmHg 38%
    18:00 +31°C° 0 mm 2 mps 752 mmHg 48%
    19:00 +28°C° 0 mm 1 mps 751 mmHg 58%
    20:00 +28°C° 0 mm 1 mps 752 mmHg 55%
    21:00 +28°C° 0 mm 2 mps 752 mmHg 52%
    22:00 +28°C° 0 mm 2 mps 752 mmHg 48%
    23:00 +28°C° 0 mm 2 mps 751 mmHg 48%

    1 July, Saturday

    Time Temperature Precipitation Wind Pressure Humidity
    00:00 +27°C° 0 mm 2 mps 751 mmHg 48%
    01:00 +27°C° 0 mm 2 mps 751 mmHg 47%
    02:00 +27°C° 0 mm 2 mps 751 mmHg 47%
    03:00 +27°C° 0 mm 2 mps 750 mmHg 46%
    04:00 +26°C° 0 mm 3 mps 750 mmHg 46%
    05:00 +29°C° 0 mm 2 mps 750 mmHg 43%
    06:00 +31°C° 0 mm 2 mps 750 mmHg 39%
    07:00 +35°C° 0 mm 2 mps 751 mmHg 36%
    08:00 +37°C° 0 mm 2 mps 750 mmHg 31%
    09:00 +38°C° 0 mm 3 mps 750 mmHg 27%
    10:00 +40°C° 0 mm 3 mps 750 mmHg 22%
    11:00 +42°C° 0 mm 3 mps 750 mmHg 22%
    12:00 +42°C° 0 mm 3 mps 750 mmHg 22%
    13:00 +42°C° 0 mm 4 mps 750 mmHg 21%
    14:00 +40°C° 0 mm 3 mps 749 mmHg 24%
    15:00 +39°C° 0 mm 3 mps 749 mmHg 26%
    16:00 +38°C° 0 mm 2 mps 749 mmHg 28%
    17:00 +35°C° 0 mm 2 mps 749 mmHg 40%
    18:00 +31°C° 0 mm 2 mps 749 mmHg 53%
    19:00 +27°C° 0 mm 1 mps 749 mmHg 66%
    20:00 +26°C° 0 mm 2 mps 749 mmHg 71%
    21:00 +25°C° 0 mm 2 mps 749 mmHg 77%
    22:00 +23°C° 0 mm 2 mps 749 mmHg 83%
    23:00 +22°C° 0 mm 3 mps 749 mmHg 84%
    Show more